Regional Weather Roundup
Issued by NWS Newport/Morehead, NC

Current Version | Previous Version | Text Only | Print | Product List | Glossary On
Versions: 1 2 3 4 5 6 7 8 9 10 11 12 13 14 15 16 17 18 19 20 21 22 23 24 25 26 27 28 29 30 31 32 33 34 35 36 37 38 39 40 41 42 43 44 45 46 47 48 49 50
274
ASUS42 KMHX 251113
RWRMHX
WEATHER ROUNDUP FOR EASTERN NORTH CAROLINA
NATIONAL WEATHER SERVICE NEWPORT/MOREHEAD CITY NC
700 AM EDT TUE APR 25 2017

NOTE: "FAIR" INDICATES FEW OR NO CLOUDS BELOW 12,000 FEET
WITH NO SIGNIFICANT WEATHER AND/OR OBSTRUCTIONS TO VISIBILITY

NCZ015>017-031-032-045>047-102-103-251200-
NORTH COAST

CITY           SKY/WX    TMP DP  RH WIND       PRES   REMARKS
EDENTON        RAIN      67  63  87 SW33G41   29.49S
ELIZABETH CITY LGT RAIN  65  64  97 E20G31    29.55S FOG
KITTY HAWK     CLOUDY    65  65 100 SW7       29.55R
MANTEO         CLOUDY    65  61  85 SW15      29.56R

$$

NCZ045>047-081-094-103-104-251200-
CENTRAL COAST

CITY           SKY/WX    TMP DP  RH WIND       PRES   REMARKS
FRISCO         CLOUDY    68  61  78 SW10      29.59R HAZE

$$

NCZ095-097-098-100-101-251200-
SOUTHERN COAST

CITY           SKY/WX    TMP DP  RH WIND       PRES   REMARKS
BEAUFORT       CLEAR     64  63  96 SW5       29.58R
CEDAR ISLAND   NOT AVBL
JACKSONVILLE   FOG       63  63 100 CALM      29.57R VSB 1/4
PINEY ISLAND   MOSUNNY  N/A N/A N/A S7        29.57R
WILMINGTON     CLOUDY    63  63 100 NW3       29.58R FOG


$$

NCZ011>013-027>030-043-044-078>080-089-090>093-098-251200-
COASTAL PLAIN

CITY           SKY/WX    TMP DP  RH WIND       PRES   REMARKS
AHOSKIE        HVY RAIN  60  60  98 N12       29.54F
CLINTON        FOG       62  62 100 CALM      29.59R VSB 1/4
ELIZABETHTOWN  CLOUDY    61  61 100 CALM      29.60R FOG
GOLDSBORO      CLOUDY    61  61 100 CALM      29.56S
GREENVILLE     RAIN      61  61 100 CALM      29.60F
HAVELOCK       NOT AVBL
KENANSVILLE    CLOUDY    63  63 100 CALM      29.58R FOG
KINSTON        LGT RAIN  61  61 100 NW6       29.57S
NEW BERN       CLOUDY    62  62 100 W7        29.58R
RICHLANDS      CLOUDY    63  63 100 NW3       29.58R
ROCKY MOUNT    RAIN      60  60 100 NW8       29.59F FOG
WASHINGTON     LGT RAIN  60  60  98 W5        29.53F
WHITEVILLE     FOG       61  60  97 W5        29.59R VSB 3/4

$$

AMZ130-135-150-152-154-156-158-170-250-252-270-ANZ085-086-088-633-658-670-251200-
MARINE OBSERVATIONS

STATION/POSITION TIME  TEMP    WIND        PRES    WAVE   SWELL
                       AIR SEA DIR/SP/G            HT/PER HT/PER
                 (UTC) (F)     (DEG/KT/KT) (MB)    (FT/S) (FT/S)
CHESAPEAKE LIGHT NOT AVBL
64 E VA BEACH    1050   62 54  110/ 21/ 25 1003.5   17/11  15/11
DUCK             1042   63 60  100/ 32/ 43  999.8
2 E DUCK         1100      58                N/A    15/11  10/11
OREGON INLET     1042   65 63  190/ 14/ 19 1000.8
13E OREGON INLT  1048      57                N/A    14/11  13/11
HATTERAS CG      1042   67 67  220/  9/ 11 1001.0
DIAMOND BUOY     1050   73 77  200/ 17/ 21 1001.8   13/10  10/10
CAPE LOOKOUT     1100   66     240/  4/  4 1001.3
BEAUFORT LAB     1042   64 65  210/  4/  5 1000.6
30 SE NEW RVR IN 1008   69     250/ 14/ 19 1000.8
30 SE NEW RVR IN 1043      71                N/A     8/12   5/12
27 SE WRIGHTSVLE 1008   70 72  230/ 12/ 17 1000.6
5 SE WRIGHTSVLE  1008   68 69  250/ 10/ 16 1000.7
225 S CAPE HAT   1050   71 75  180/ 12/ 14 1004.8    9/10   8/10
41 SE CHARLESTON 1050   66 72  260/ 16/ 19 1003.0    7/ 9   5/ 9

$$




USA.gov is the U.S. government's official web portal to all federal, state and local government web resources and services.